Regional Weather Roundup
Issued by NWS

Home | Current Version | Previous Version | Text Only | Print | Product List | Glossary On
Versions: 1 2 3 4 5 6 7 8 9 10 11 12 13 14 15 16 17 18 19 20 21 22 23 24 25 26 27 28 29 30 31 32 33 34 35 36 37 38 39 40 41 42 43 44 45 46 47 48
000
ASUS44 KBMX 240810
RWRAL

ALABAMA REGIONAL WEATHER ROUNDUP
NATIONAL WEATHER SERVICE BIRMINGHAM AL
200 AM CST MON NOV 24 2014

NOTE: "FAIR" INDICATES FEW OR NO CLOUDS BELOW 12,000 FEET
WITH NO SIGNIFICANT WEATHER AND/OR OBSTRUCTIONS TO VISIBILITY.

THE REMARK "TC" DENOTES TEMPERATURE IN DEGREES CELSIUS.

ALZ001>011-014-016>018-020-240900-
NORTH ALABAMA

CITY           SKY/WX    TMP DP  RH WIND       PRES   REMARKS
MUSCLE SHOALS  PTCLDY    63  55  75 SW16G24   29.57S
HUNTSVILLE     PTCLDY    63  56  78 S14       29.61R
DECATUR        PTCLDY    63  55  77 S16       29.60S
HALEYVILLE     MOCLDY    61  57  86 SW18G31   29.63R
GADSDEN        CLOUDY    63  55  77 SW13      29.68S
$$

ALZ012-013-022-023-030>036-040>044-240900-
WEST CENTRAL ALABAMA

CITY           SKY/WX    TMP DP  RH WIND       PRES   REMARKS
TUSCALOOSA     PTCLDY    65  60  84 S15       29.67S
$$

ALZ015-024>027-033>036-040>044-240900-
CENTRAL ALABAMA

CITY           SKY/WX    TMP DP  RH WIND       PRES   REMARKS
BIRMINGHAM     CLOUDY    64  58  80 SW20G29   29.70S
MONTGOMERY     CLEAR     66  61  84 S8        29.75S
SHELBY CO ARPT CLOUDY    65  61  87 SW9       29.71R
MAXWELL AFB    CLEAR     65  62  90 S7        29.74S
GREENVILLE     MOCLDY    65  63  93 SW5       29.75F
$$

ALZ019-021-028-029-037-038-045>048-240900-
EAST CENTRAL ALABAMA

CITY           SKY/WX    TMP DP  RH WIND       PRES   REMARKS
ANNISTON       MOCLDY    61  56  83 SW7       29.72R
ALEXANDER CITY CLOUDY    68  62  80 S12G17    29.74F
AUBURN         NOT AVBL
$$

ALZ051>064-240900-
SOUTHWEST ALABAMA

CITY           SKY/WX    TMP DP  RH WIND       PRES   REMARKS
MOBILE         CLOUDY    69  68  96 SW9       29.77S
BROOKLEY FIELD CLOUDY    66  65  96 S5        29.78S
EVERGREEN      MOCLDY    65  64  97 S5        29.77S FOG
$$

ALZ049-050-065>069-240900-
SOUTHEAST ALABAMA

CITY           SKY/WX    TMP DP  RH WIND       PRES   REMARKS
DOTHAN         CLOUDY    65  64  97 S7        29.82F
OZARK          CLOUDY    66  64  94 S8        29.79S
TROY           CLOUDY    65  63  93 SW6       29.78S
EUFAULA        CLOUDY    66  64  93 S5        29.78S
$$


USA.gov is the U.S. government's official web portal to all federal, state and local government web resources and services.